Location: Carella
(45.8167°N, 9.2667°E)
Time: 01:21:04
(UTC+00:00)

Cosmos 1626 - Pass Details

Date: 30 March 2020
Orbit: 492 x 494 km, 82.5° (Epoch: 30 May)

Event Time Altitude Azimuth Distance (km) Brightness Sun altitude
Rises 18:28:40 0° 356° (N) 2,587 6.0 -7.6°
Reaches altitude 10° 18:30:52 10° 3° (N) 1,700 5.0 -8.0°
Maximum altitude 18:34:27 45° 78° (ENE) 685 2.4 -8.6°
Drops below altitude 10° 18:38:00 10° 152° (SSE) 1,687 4.4 -9.2°
Enters shadow 18:39:50 - 158° (SSE) 2,432 5.2 -9.5°
